| time (UTC) | temp F | wind direction | speed knots | gust knots | rain 1hr in | rain 24hr in | rain mn in | humidity % | barometer mb |
| 20260506201505 | 66 | 341 | 7.8 | 12.2 | 0.00 | 0.05 | 0.05 | 78 | 1001.2 |
| 20260506200004 | 65 | 321 | 5.2 | 14.8 | 0.00 | 0.05 | 0.05 | 78 | 1001.3 |
| 20260506194601 | 66 | 325 | 4.3 | 10.4 | 0.00 | 0.05 | 0.05 | 78 | 1001.3 |
| 20260506193106 | 65 | 5 | 3.5 | 9.6 | 0.00 | 0.05 | 0.05 | 79 | 1001.5 |
| 20260506191601 | 65 | 360 | 3.5 | 12.2 | 0.00 | 0.05 | 0.05 | 80 | 1001.6 |
| 20260506184553 | 64 | 332 | 4.3 | 12.2 | 0.00 | 0.05 | 0.05 | 81 | 1001.8 |
| 20260506183100 | 64 | 360 | 1.7 | 11.3 | 0.00 | 0.05 | 0.05 | 82 | 1002.0 |
| 20260506181555 | 63 | 346 | 2.6 | 13.0 | 0.00 | 0.05 | 0.05 | 82 | 1002.1 |
| 20260506180051 | 63 | 300 | 2.6 | 19.1 | 0.00 | 0.05 | 0.05 | 82 | 1002.2 |
| 20260506174517 | 64 | 304 | 5.2 | 14.8 | 0.00 | 0.05 | 0.05 | 81 | 1002.3 |
| 20260506173017 | 63 | 321 | 6.1 | 12.2 | 0.00 | 0.05 | 0.05 | 82 | 1002.4 |
| 20260506171514 | 63 | 302 | 5.2 | 12.2 | 0.01 | 0.05 | 0.05 | 83 | 1002.5 |
| 20260506170015 | 63 | 327 | 8.7 | 13.0 | 0.02 | 0.05 | 0.05 | 83 | 1002.5 |
| 20260506164532 | 63 | 319 | 7.0 | 12.2 | 0.04 | 0.05 | 0.05 | 84 | 1002.4 |
| 20260506163013 | 63 | 355 | 4.3 | 7.8 | 0.04 | 0.05 | 0.05 | 85 | 1002.6 |
| 20260506161505 | 63 | 321 | 2.6 | 8.7 | 0.04 | 0.04 | 0.04 | 84 | 1003.3 |
| 20260506160002 | 64 | 14 | 0.9 | 10.4 | 0.03 | 0.03 | 0.03 | 81 | 1003.6 |
| 20260506154600 | 64 | 331 | 3.5 | 8.7 | 0.01 | 0.01 | 0.01 | 79 | 1003.7 |
| 20260506153057 | 64 | 355 | 6.1 | 11.3 | 0.01 | 0.01 | 0.01 | 77 | 1003.7 |
| 20260506151556 | 65 | 319 | 2.6 | 10.4 | 0.00 | 0.00 | 0.00 | 74 | 1003.5 |
| 20260506144552 | 67 | 328 | 7.8 | 13.0 | 0.00 | 0.00 | 0.00 | 71 | 1003.5 |
| 20260506143053 | 67 | 38 | 7.0 | 14.8 | 0.00 | 0.00 | 0.00 | 69 | 1003.6 |
| 20260506141550 | 68 | 342 | 6.1 | 13.0 | 0.00 | 0.00 | 0.00 | 67 | 1003.6 |
| 20260506140049 | 68 | 336 | 3.5 | 13.0 | 0.00 | 0.00 | 0.00 | 67 | 1003.6 |
| 20260506134544 | 67 | 312 | 4.3 | 12.2 | 0.00 | 0.00 | 0.00 | 68 | 1003.4 |
| 20260506133052 | 67 | 355 | 5.2 | 11.3 | 0.00 | 0.00 | 0.00 | 69 | 1003.6 |
| 20260506131537 | 67 | 297 | 3.5 | 14.8 | 0.00 | 0.00 | 0.00 | 69 | 1003.5 |
| 20260506130035 | 66 | 313 | 7.8 | 14.8 | 0.00 | 0.00 | 0.00 | 69 | 1003.9 |
| 20260506124533 | 66 | 23 | 5.2 | 16.5 | 0.00 | 0.00 | 0.00 | 71 | 1003.7 |
| 20260506123031 | 66 | 302 | 4.3 | 13.9 | 0.00 | 0.00 | 0.00 | 72 | 1003.7 |
| 20260506121527 | 66 | 323 | 5.2 | 10.4 | 0.00 | 0.00 | 0.00 | 72 | 1003.6 |
| 20260506120046 | 65 | 319 | 6.1 | 11.3 | 0.00 | 0.00 | 0.00 | 73 | 1003.7 |
| 20260506114621 | 64 | 302 | 7.0 | 14.8 | 0.00 | 0.00 | 0.00 | 75 | 1003.6 |
| 20260506113020 | 64 | 306 | 6.1 | 14.8 | 0.00 | 0.00 | 0.00 | 75 | 1003.6 |
| 20260506111514 | 64 | 309 | 6.1 | 13.0 | 0.00 | 0.00 | 0.00 | 76 | 1003.6 |
| 20260506110013 | 63 | 290 | 5.2 | 12.2 | 0.00 | 0.00 | 0.00 | 77 | 1003.6 |
| 20260506104521 | 63 | 321 | 7.0 | 12.2 | 0.00 | 0.00 | 0.00 | 77 | 1003.6 |
| 20260506103028 | 63 | 282 | 5.2 | 11.3 | 0.00 | 0.00 | 0.00 | 77 | 1003.5 |
| 20260506101506 | 63 | 298 | 5.2 | 11.3 | 0.00 | 0.00 | 0.00 | 78 | 1003.5 |
| 20260506100005 | 63 | 315 | 4.3 | 9.6 | 0.00 | 0.00 | 0.00 | 77 | 1003.6 |
| 20260506094502 | 63 | 300 | 4.3 | 11.3 | 0.00 | 0.00 | 0.00 | 77 | 1003.6 |
| 20260506093000 | 64 | 313 | 5.2 | 9.6 | 0.00 | 0.00 | 0.00 | 76 | 1003.5 |
| 20260506091607 | 64 | 312 | 5.2 | 11.3 | 0.00 | 0.00 | 0.00 | 76 | 1003.3 |
| 20260506090104 | 64 | 339 | 4.3 | 10.4 | 0.00 | 0.00 | 0.00 | 75 | 1003.5 |
| 20260506084621 | 65 | 282 | 3.5 | 10.4 | 0.00 | 0.00 | 0.00 | 75 | 1003.6 |
| 20260506083053 | 65 | 295 | 5.2 | 12.2 | 0.00 | 0.00 | 0.00 | 75 | 1003.5 |
| 20260506081558 | 65 | 282 | 4.3 | 10.4 | 0.00 | 0.00 | 0.00 | 75 | 1003.6 |
| 20260506073020 | 65 | 315 | 3.5 | 7.8 | 0.00 | 0.00 | 0.00 | 75 | 1003.4 |
| 20260506071519 | 65 | 9 | 1.7 | 7.0 | 0.00 | 0.00 | 0.00 | 75 | 1003.4 |
| 20260506061541 | 66 | 308 | 2.6 | 9.6 | 0.00 | 0.00 | 0.00 | 72 | 1003.9 |
| 20260506044537 | 67 | 266 | 5.2 | 9.6 | 0.00 | 0.00 | 0.00 | 68 | 1004.7 |
| 20260506043029 | 67 | 336 | 4.3 | 10.4 | 0.00 | 0.00 | 0.00 | 67 | 1004.7 |
| 20260506041530 | 68 | 275 | 3.5 | 9.6 | 0.00 | 0.00 | 0.00 | 66 | 1004.6 |
| 20260506040033 | 68 | 307 | 5.2 | 10.4 | 0.00 | 0.00 | 0.00 | 65 | 1004.5 |
| 20260506034526 | 68 | 334 | 3.5 | 10.4 | 0.00 | 0.00 | 0.00 | 65 | 1004.5 |
| 20260506033023 | 68 | 295 | 6.1 | 10.4 | 0.00 | 0.00 | 0.00 | 64 | 1004.3 |
| 20260506031521 | 69 | 330 | 4.3 | 11.3 | 0.00 | 0.00 | 0.00 | 63 | 1004.5 |
| 20260506030021 | 69 | 290 | 4.3 | 11.3 | 0.00 | 0.00 | 0.00 | 62 | 1004.4 |
| 20260506024520 | 69 | 291 | 2.6 | 10.4 | 0.00 | 0.00 | 0.00 | 61 | 1004.5 |
| 20260506023031 | 69 | 315 | 6.1 | 11.3 | 0.00 | 0.00 | 0.00 | 60 | 1004.6 |
| 20260506021530 | 70 | 306 | 2.6 | 8.7 | 0.00 | 0.00 | 0.00 | 60 | 1004.3 |
| 20260506020016 | 70 | 331 | 5.2 | 9.6 | 0.00 | 0.00 | 0.00 | 59 | 1004.2 |
| 20260506014518 | 71 | 302 | 2.6 | 10.4 | 0.00 | 0.00 | 0.00 | 57 | 1004.2 |
| 20260506013057 | 72 | 277 | 5.2 | 11.3 | 0.00 | 0.00 | 0.00 | 54 | 1004.0 |
| 20260506011555 | 72 | 265 | 4.3 | 12.2 | 0.00 | 0.00 | 0.00 | 51 | 1003.8 |
| 20260506010041 | 74 | 277 | 2.6 | 8.7 | 0.00 | 0.00 | 0.00 | 47 | 1003.7 |
| 20260506004542 | 75 | 315 | 4.3 | 9.6 | 0.00 | 0.00 | 0.00 | 45 | 1003.6 |
| 20260506003041 | 75 | 299 | 6.1 | 15.6 | 0.00 | 0.00 | 0.00 | 45 | 1003.5 |
| 20260506001541 | 75 | 300 | 5.2 | 9.6 | 0.00 | 0.00 | 0.00 | 44 | 1003.3 |
| 20260506000034 | 76 | 333 | 7.0 | 13.0 | 0.00 | 0.00 | 0.00 | 43 | 1003.1 |
| 20260505234534 | 77 | 323 | 4.3 | 12.2 | 0.00 | 0.00 | 0.00 | 42 | 1002.9 |
| 20260505233036 | 77 | 322 | 8.7 | 18.2 | 0.00 | 0.00 | 0.00 | 42 | 1002.8 |
| 20260505231548 | 78 | 329 | 5.2 | 14.8 | 0.00 | 0.00 | 0.00 | 43 | 1002.6 |
| 20260505230029 | 78 | 311 | 6.1 | 12.2 | 0.00 | 0.00 | 0.00 | 42 | 1002.5 |
| 20260505224528 | 78 | 329 | 7.0 | 15.6 | 0.00 | 0.00 | 0.00 | 41 | 1002.5 |
| 20260505223028 | 79 | 324 | 6.1 | 13.9 | 0.00 | 0.00 | 0.00 | 41 | 1002.8 |
| 20260505220025 | 80 | 345 | 9.6 | 17.4 | 0.00 | 0.00 | 0.00 | 36 | 1002.5 |
| 20260505214525 | 81 | 338 | 7.0 | 16.5 | 0.00 | 0.00 | 0.00 | 35 | 1002.5 |
| 20260505213034 | 81 | 308 | 10.4 | 20.9 | 0.00 | 0.00 | 0.00 | 34 | 1002.6 |
| 20260505211522 | 81 | 330 | 4.3 | 11.3 | 0.00 | 0.00 | 0.00 | 34 | 1002.4 |
| 20260505210018 | 81 | 341 | 9.6 | 17.4 | 0.00 | 0.00 | 0.00 | 34 | 1002.3 |
| 20260505204518 | 81 | 331 | 8.7 | 20.9 | 0.00 | 0.00 | 0.00 | 33 | 1002.3 |
| 20260505203027 | 81 | 316 | 6.1 | 18.2 | 0.00 | 0.00 | 0.00 | 32 | 1002.3 |